Roanoke, VA

12:50 AM EDT on May 23, 2017 (GMT -0400)
Roanoke Regional-Woodrum

Weather History for KROA - March, 2013

Change the Weather History Date:

Saturday, March 30, 2013

  Actual Average Record
Temperature  
Mean Temperature 49 °F 52 °F  
Max Temperature 65 °F 63 °F 85 °F (1963)
Min Temperature 33 °F 41 °F 20 °F (1964)
Degree Days  
Heating Degree Days 16 14  
Month to date heating degree days 687 539  
Since 1 July heating degree days 3629 3744  
Cooling Degree Days 0 0  
Month to date cooling degree days 0 0  
Year to date cooling degree days 0 0  
Moisture  
Dew Point 26 °F    
Average Humidity 46    
Maximum Humidity 70    
Minimum Humidity 22    
Precipitation  
Precipitation 0.00 in 0.12 in 1.39 in (1958)
Month to date precipitation 3.14 3.34  
Year to date precipitation 12.43 9.15  
Snow  
Snow 0.00 in - - ()
Month to date snowfall 8.0  
Since 1 July snowfall 17.3  
Snow Depth 0.00 in    
Sea Level Pressure  
Sea Level Pressure 30.17 in    
Wind  
Wind Speed 4 mph (NE)    
Max Wind Speed 13 mph    
Max Gust Speed 20 mph    
Visibility 10 miles    
Events      
T = Trace of Precipitation, MM = Missing Value Source: NWS Daily Summary

Daily Weather History Graph

Daily Weather History Graph

Search for Another Location

Airport or City:

Trip Planner

Search our weather history database for the weather conditions in past years. The results will help you decide how hot, cold, wet, or windy it might be!

Date:

Astronomy

Mar. 30, 2013 Rise Set
Actual Time 7:08 AM EDT 7:41 PM EDT
Civil Twilight 6:41 AM EDT 8:07 PM EDT
Nautical Twilight 6:11 AM EDT 8:38 PM EDT
Astronomical Twilight 5:39 AM EDT 9:09 PM EDT
Moon 11:40 PM EDT (3/30) 9:06 AM EDT (3/30)
Length of Visible Light 13h 25m
Length of Day
12h 32m
Waning Gibbous, 86% of the Moon is Illuminated
Mar 30
Waning Gibbous
Apr 3
Last Quarter
Apr 10
New
Apr 18
First Quarter
Apr 25
Full

Hourly Weather History & Observations

Time (EDT) Temp. Windchill Dew Point Humidity Pressure Visibility Wind Dir Wind Speed Gust Speed Precip Events Conditions
12:54 AM 42.1 °F 40.2 °F 26.1 °F 53% 30.22 in 10.0 mi NNW 3.5 mph - N/A   Overcast
1:54 AM 41.0 °F 39.0 °F 25.0 °F 53% 30.23 in 10.0 mi NW 3.5 mph - N/A   Scattered Clouds
2:54 AM 39.9 °F 35.1 °F 27.0 °F 60% 30.23 in 10.0 mi NW 6.9 mph - N/A   Scattered Clouds
3:54 AM 39.9 °F 37.8 °F 26.1 °F 58% 30.22 in 10.0 mi NNW 3.5 mph - N/A   Clear
4:54 AM 37.9 °F 33.5 °F 25.0 °F 60% 30.22 in 10.0 mi NNE 5.8 mph - N/A   Clear
5:54 AM 39.0 °F 35.7 °F 26.1 °F 60% 30.22 in 10.0 mi NNW 4.6 mph - N/A   Clear
6:54 AM 36.0 °F - 26.1 °F 67% 30.24 in 10.0 mi Calm Calm - N/A   Scattered Clouds
7:54 AM 36.0 °F - 26.1 °F 67% 30.25 in 10.0 mi Calm Calm - N/A   Partly Cloudy
8:54 AM 43.0 °F 41.3 °F 30.0 °F 60% 30.27 in 10.0 mi WNW 3.5 mph - N/A   Partly Cloudy
9:54 AM 48.0 °F - 32.0 °F 54% 30.27 in 10.0 mi WSW 6.9 mph - N/A   Partly Cloudy
10:54 AM 50.0 °F - 30.0 °F 46% 30.26 in 10.0 mi Calm Calm - N/A   Partly Cloudy
11:54 AM 55.0 °F - 27.0 °F 34% 30.22 in 10.0 mi SE 4.6 mph - N/A   Partly Cloudy
12:54 PM 57.9 °F - 27.0 °F 31% 30.19 in 10.0 mi South 10.4 mph - N/A   Partly Cloudy
1:54 PM 61.0 °F - 25.0 °F 25% 30.14 in 10.0 mi Variable 4.6 mph - N/A   Partly Cloudy
2:54 PM 61.0 °F - 24.1 °F 24% 30.14 in 10.0 mi Calm Calm - N/A   Partly Cloudy
3:54 PM 63.0 °F - 25.0 °F 24% 30.11 in 10.0 mi Variable 3.5 mph - N/A   Partly Cloudy
4:54 PM 63.0 °F - 24.1 °F 23% 30.09 in 10.0 mi NE 4.6 mph - N/A   Partly Cloudy
5:54 PM 64.0 °F - 25.0 °F 23% 30.08 in 10.0 mi Calm Calm - N/A   Partly Cloudy
6:54 PM 62.1 °F - 25.0 °F 24% 30.08 in 10.0 mi East 5.8 mph - N/A   Clear
7:54 PM 57.9 °F - 24.1 °F 27% 30.10 in 10.0 mi SE 8.1 mph - N/A   Clear
8:54 PM 57.0 °F - 25.0 °F 29% 30.10 in 10.0 mi ESE 8.1 mph - N/A   Clear
9:54 PM 55.0 °F - 25.0 °F 31% 30.09 in 10.0 mi ESE 5.8 mph - N/A   Clear
10:54 PM 54.0 °F - 26.1 °F 34% 30.09 in 10.0 mi ESE 6.9 mph - N/A   Clear
11:54 PM 53.1 °F - 25.0 °F 34% 30.08 in 10.0 mi Calm Calm - N/A   Clear